Terug naar catalogus

FIRESAT2

ActiefWetenschapSSO
NORAD 69873·PAYLOAD·🇺🇸 United States

Gelanceerd Jul 7, 2026 vanaf Vandenberg Space Force Base

Loading…

Volgende Passages (komende 24 uur)

TLE

VersSource: Space-Track

Epoch: Sep 12, 2026, 03:52 UTC

1 69873U 26156E   26255.16170851  .00000673  00000-0  73314-4 0  9990
2 69873  97.7496 154.4862 0005998 294.5243  65.5350 14.91220200  9966

Volg FIRESAT2 in realtime met AllMySat

Download on the App Store